TimeCDT,TemperatureF,Dew PointF,Humidity,Sea Level PressureIn,VisibilityMPH,Wind Direction,Wind SpeedMPH,Gust SpeedMPH,PrecipitationIn,Events,Conditions,WindDirDegrees,DateUTC
12:52 AM,64.0,62.1,93,29.99,6.0,Calm,Calm,-,N/A,,Clear,0,2013-06-19 05:52:00
1:49 AM,64.4,62.6,94,30.01,1.8,Calm,Calm,-,N/A,,Clear,0,2013-06-19 06:49:00
1:52 AM,64.9,62.1,90,29.99,0.8,Calm,Calm,-,N/A,,Clear,0,2013-06-19 06:52:00
2:00 AM,64.4,62.6,94,30.01,0.5,East,3.5,-,N/A,Fog,Fog,100,2013-06-19 07:00:00
2:06 AM,64.4,62.6,94,30.02,1.0,ESE,3.5,-,N/A,,Clear,110,2013-06-19 07:06:00
2:14 AM,62.6,62.6,100,30.02,0.5,Calm,Calm,-,N/A,Fog,Fog,0,2013-06-19 07:14:00
2:17 AM,62.6,62.6,100,30.01,0.2,Calm,Calm,-,N/A,Fog,Fog,0,2013-06-19 07:17:00
2:37 AM,62.6,60.8,94,30.01,0.2,Calm,Calm,-,0.01,Fog,Fog,0,2013-06-19 07:37:00
2:52 AM,61.0,60.1,97,29.99,0.8,Calm,Calm,-,0.01,,Mist,0,2013-06-19 07:52:00
3:02 AM,62.6,60.8,94,30.02,0.5,Calm,Calm,-,N/A,Fog,Fog,0,2013-06-19 08:02:00
3:11 AM,62.6,60.8,94,30.02,0.2,Calm,Calm,-,N/A,Fog,Fog,0,2013-06-19 08:11:00
3:52 AM,62.1,61.0,96,30.00,0.2,Calm,Calm,-,N/A,Fog,Fog,0,2013-06-19 08:52:00
4:06 AM,60.8,59.0,94,30.01,0.2,Calm,Calm,-,N/A,Fog,Fog,0,2013-06-19 09:06:00
4:15 AM,60.8,60.8,100,30.01,0.8,Calm,Calm,-,N/A,,Mist,0,2013-06-19 09:15:00
4:17 AM,60.8,60.8,100,30.01,1.5,Calm,Calm,-,N/A,,Partly Cloudy,0,2013-06-19 09:17:00
4:19 AM,60.8,60.8,100,30.01,3.0,Calm,Calm,-,N/A,,Partly Cloudy,0,2013-06-19 09:19:00
4:52 AM,60.1,59.0,96,29.99,7.0,Calm,Calm,-,N/A,,Mostly Cloudy,0,2013-06-19 09:52:00
5:08 AM,60.8,59.0,94,30.02,1.8,Calm,Calm,-,N/A,,Overcast,0,2013-06-19 10:08:00
5:13 AM,60.8,59.0,94,30.02,0.5,Calm,Calm,-,N/A,Fog,Fog,0,2013-06-19 10:13:00
5:21 AM,62.6,60.8,94,30.02,1.0,Calm,Calm,-,N/A,,Mist,0,2013-06-19 10:21:00
5:25 AM,60.8,59.0,94,30.02,2.0,Calm,Calm,-,N/A,,Mostly Cloudy,0,2013-06-19 10:25:00
5:37 AM,60.8,59.0,94,30.02,3.0,Calm,Calm,-,N/A,,Partly Cloudy,0,2013-06-19 10:37:00
5:52 AM,62.1,60.1,93,30.01,1.8,Calm,Calm,-,N/A,,Partly Cloudy,0,2013-06-19 10:52:00
6:23 AM,62.6,60.8,94,30.02,3.0,East,3.5,-,N/A,,Clear,100,2013-06-19 11:23:00
6:52 AM,66.0,64.0,93,30.01,6.0,East,3.5,-,N/A,,Clear,100,2013-06-19 11:52:00
7:52 AM,70.0,64.0,81,30.02,10.0,ESE,5.8,-,N/A,,Clear,120,2013-06-19 12:52:00
8:52 AM,73.9,66.0,76,30.03,10.0,SE,4.6,-,N/A,,Clear,130,2013-06-19 13:52:00
9:52 AM,77.0,66.0,69,30.03,10.0,SE,9.2,-,N/A,,Clear,130,2013-06-19 14:52:00
10:52 AM,80.1,66.0,62,30.02,10.0,SSE,8.1,-,N/A,,Clear,150,2013-06-19 15:52:00
11:52 AM,82.0,66.0,58,30.01,10.0,SE,9.2,-,N/A,,Clear,140,2013-06-19 16:52:00
12:52 PM,84.0,66.0,55,29.99,10.0,SSE,11.5,18.4,N/A,,Clear,160,2013-06-19 17:52:00
1:52 PM,87.1,64.0,46,29.98,10.0,South,11.5,18.4,N/A,,Scattered Clouds,170,2013-06-19 18:52:00
2:52 PM,88.0,64.0,45,29.97,10.0,South,12.7,19.6,N/A,,Mostly Cloudy,180,2013-06-19 19:52:00
3:52 PM,88.0,64.9,46,29.96,10.0,SSE,12.7,19.6,N/A,,Scattered Clouds,160,2013-06-19 20:52:00
4:52 PM,88.0,63.0,43,29.95,10.0,South,16.1,20.7,N/A,,Partly Cloudy,180,2013-06-19 21:52:00
5:52 PM,84.9,62.1,46,29.94,10.0,South,11.5,-,N/A,,Partly Cloudy,170,2013-06-19 22:52:00
6:52 PM,84.9,63.0,48,29.93,10.0,SSE,10.4,-,N/A,,Clear,160,2013-06-19 23:52:00
7:52 PM,84.0,64.0,51,29.93,10.0,SSE,11.5,-,N/A,,Mostly Cloudy,150,2013-06-20 00:52:00
8:52 PM,79.0,64.9,62,29.93,10.0,SE,6.9,-,N/A,,Clear,140,2013-06-20 01:52:00
9:52 PM,75.0,66.0,73,29.95,10.0,SSE,4.6,-,N/A,,Clear,150,2013-06-20 02:52:00
10:52 PM,71.1,66.0,84,29.97,10.0,ESE,6.9,-,N/A,,Clear,120,2013-06-20 03:52:00
11:52 PM,71.1,66.0,84,29.98,10.0,SE,4.6,-,N/A,,Clear,130,2013-06-20 04:52:00